Погода в Фиери

Албания     40°43′10″N   19°33′30″E
темп.,
°C
ветер,
м/с
пор.,
м/с
влажн.,
%
обл.,
%
осадки,
мм/ч
давл.,
гПа
погр.,
м
17 августа, ср
ср1723:00+24всв227213 0.0 101225
02:00+23в22710 0.0 101223
05:00+23в22730 0.0 101228
08:00+26в22580 0.0 1013243
11:00+30ссз43445 0.0 1013959
14:00+30сз66470 0.0 1013788
17:00+29ссз55540 0.0 1012536
20:00+24ссв22750 0.0 101337
18 августа, чт
чт1823:00+24св22680 0.0 101317
02:00+23св22670 0.0 101324
05:00+23всв22640 0.0 101126
08:00+26св23470 0.0 1012203
11:00+32с43310 0.0 1012643
14:00+33ссз54330 0.0 1011613
17:00+31ссз44390 0.0 1010296
20:00+26св11580 0.0 101013
19 августа, пт
пт1923:00+25св22620 0.0 101122
02:00+26вюв22460 0.0 100911
05:00+26в22440 0.0 100912
08:00+31юв23320 0.0 1009157
11:00+35юз66320 0.0 1009575
14:00+36юз66285 0.0 1009624
17:00+34юз56365 0.0 1008411
20:00+26сз01795 0.0 100911
20 августа, сб
сб2023:00+26в347737 0.0 100968
02:00+26зсз5768100 0.0 1008151
05:00+24с35824 0.0 1009146
08:00+27с24605 0.0 1009503
11:00+29сз65580 0.0 1009880
14:00+29сз76600 0.0 1009875
17:00+27сз66670 0.0 1009822
20:00+24ссз23840 0.0 1009115
21 августа, вс
вс2123:00+23ссз22890 0.1 1010109
02:00+23ссз238710 0.1 1009129
05:00+22ссв22890 0.1 100881
08:00+24св127811 0.1 1008414
11:00+28сз44600 0.1 10071122
14:00+29зсз64550 0.1 10061114
17:00+28сз44560 0.0 1005770
20:00+24ссз23830 0.0 100548